CW9098 Weather Reports


time (UTC)temp
F
wind
direction
speed
knots
gust
knots
rain 1hr
in
rain 24hr
in
rain mn
in
humidity
%
barometer
mb
20260506224622 54 303 4.3 11.3 0.00 0.01 0.01 83 1010.3
20260506224137 54 318 4.3 11.3 0.00 0.01 0.01 83 1010.3
20260506223622 54 14 7.8 11.3 0.00 0.01 0.01 83 1010.3
20260506223118 54 320 0.9 4.3 0.00 0.01 0.01 83 1010.2
20260506222635 54 280 0.0 7.0 0.00 0.01 0.01 83 1010.2
20260506222123 54 280 5.2 7.0 0.00 0.01 0.01 83 1010.2
20260506221638 54 234 2.6 7.0 0.00 0.01 0.01 83 1010.1
20260506221125 54 262 3.5 7.0 0.00 0.01 0.01 83 1010.2
20260506220640 54 278 3.5 7.0 0.01 0.01 0.01 84 1010.3
20260506220132 54 247 4.3 7.8 0.01 0.01 0.01 83 1010.2
20260506215638 54 282 2.6 7.8 0.01 0.01 0.01 84 1010.1
20260506215123 54 277 4.3 7.0 0.01 0.01 0.01 83 1010.0
20260506214638 54 272 4.3 8.7 0.01 0.01 0.01 84 1010.0
20260506214132 54 306 5.2 8.7 0.01 0.01 0.01 84 1009.9
20260506213625 55 309 6.1 8.7 0.01 0.01 0.01 84 1009.8
20260506213117 55 234 1.7 8.7 0.01 0.01 0.01 84 1009.8
20260506212633 55 278 4.3 8.7 0.01 0.01 0.01 84 1009.6
20260506212140 55 305 2.6 9.6 0.01 0.01 0.01 84 1009.4
20260506211633 55 303 4.3 10.4 0.01 0.01 0.01 83 1009.4
20260506211122 55 311 6.1 13.9 0.00 0.00 0.00 83 1009.3
20260506210634 55 332 8.7 13.9 0.00 0.00 0.00 83 1009.4
20260506210121 55 301 7.0 13.9 0.00 0.00 0.00 82 1009.4
20260506205636 56 303 9.6 13.9 0.00 0.00 0.00 81 1009.4
20260506205121 56 305 8.7 13.9 0.00 0.00 0.00 81 1009.1
20260506204616 57 297 7.0 13.0 0.00 0.00 0.00 81 1009.0
20260506204132 57 279 3.5 10.4 0.00 0.00 0.00 81 1008.9
20260506203638 57 334 5.2 12.2 0.00 0.00 0.00 81 1008.8
20260506203124 57 263 7.8 12.2 0.00 0.00 0.00 80 1008.7
20260506202619 58 276 6.1 13.0 0.00 0.00 0.00 81 1008.7
20260506202132 58 257 7.0 13.0 0.00 0.00 0.00 80 1008.7
20260506201640 58 257 7.8 13.0 0.00 0.00 0.00 80 1008.8
20260506201134 59 245 8.7 13.0 0.00 0.00 0.00 81 1008.8
20260506200636 59 253 8.7 12.2 0.00 0.00 0.00 80 1008.7
20260506200151 59 250 7.0 12.2 0.00 0.00 0.00 81 1008.7
20260506195625 59 241 7.0 10.4 0.00 0.00 0.00 80 1008.7
20260506195118 59 232 7.0 10.4 0.00 0.00 0.00 82 1008.7
20260506194632 59 249 5.2 8.7 0.00 0.00 0.00 83 1008.7
20260506194139 59 282 2.6 7.8 0.00 0.00 0.00 83 1008.6
20260506193631 59 280 5.2 8.7 0.00 0.00 0.00 83 1008.5
20260506193120 59 241 6.1 12.2 0.00 0.00 0.00 83 1008.5
20260506192657 59 270 7.0 12.2 0.00 0.00 0.00 84 1008.4
20260506192143 59 242 4.3 8.7 0.00 0.00 0.00 85 1008.4
20260506191635 58 284 1.7 12.2 0.00 0.00 0.00 85 1008.3
20260506191123 58 227 6.1 12.2 0.00 0.00 0.00 84 1008.3
20260506190638 59 273 7.0 10.4 0.00 0.00 0.00 85 1008.3
20260506190124 59 247 2.6 6.1 0.00 0.00 0.00 85 1008.2
20260506185619 59 269 1.7 8.7 0.00 0.00 0.00 85 1008.1
20260506185132 59 220 4.3 8.7 0.00 0.00 0.00 84 1008.1
20260506184620 60 272 2.6 7.0 0.00 0.00 0.00 84 1007.9
20260506184137 60 273 4.3 7.0 0.00 0.00 0.00 83 1007.9
20260506183622 61 270 1.7 7.8 0.00 0.00 0.00 83 1007.9
20260506183153 61 266 2.6 8.7 0.00 0.00 0.00 83 1008.0
20260506182625 61 258 5.2 9.6 0.00 0.00 0.00 83 1007.9
20260506182118 62 244 6.1 10.4 0.00 0.00 0.00 82 1008.0
20260506181633 62 247 5.2 10.4 0.00 0.00 0.00 82 1007.9
20260506181128 62 305 7.0 9.6 0.00 0.00 0.00 82 1007.9
20260506180642 62 213 6.1 11.3 0.00 0.00 0.00 83 1007.8
20260506180135 61 253 7.0 12.2 0.00 0.00 0.00 83 1007.9
20260506175644 61 252 7.0 12.2 0.00 0.00 0.00 83 1007.9
20260506175138 61 273 7.8 11.3 0.00 0.00 0.00 83 1007.8
20260506174624 62 271 7.8 15.6 0.00 0.00 0.00 83 1007.7
20260506174120 62 276 8.7 15.6 0.00 0.00 0.00 84 1007.7
20260506173634 63 274 7.8 13.9 0.00 0.00 0.00 84 1007.6
20260506173121 63 273 7.8 13.9 0.00 0.00 0.00 85 1007.4
20260506172636 62 287 4.3 13.0 0.00 0.00 0.00 86 1007.4
20260506172121 62 237 7.8 13.0 0.00 0.00 0.00 86 1007.3
20260506171636 62 243 4.3 7.8 0.00 0.00 0.00 86 1007.1
20260506171125 62 203 0.9 4.3 0.00 0.00 0.00 86 1007.0
20260506170619 62 187 1.7 5.2 0.00 0.00 0.00 86 1007.0
20260506170134 61 186 2.6 6.1 0.00 0.00 0.00 86 1007.1
20260506165643 61 189 0.9 6.1 0.00 0.00 0.00 86 1007.0
20260506165135 61 183 2.6 8.7 0.00 0.00 0.00 86 1007.0
20260506164622 61 194 4.3 7.0 0.00 0.00 0.00 86 1006.9
20260506164155 60 201 3.5 4.3 0.00 0.00 0.00 86 1007.0
20260506163629 60 212 0.9 4.3 0.00 0.00 0.00 86 1007.0
20260506163124 60 168 0.9 4.3 0.00 0.00 0.00 86 1006.9
20260506162618 60 187 0.9 4.3 0.00 0.00 0.00 86 1006.9
20260506162133 60 188 1.7 4.3 0.00 0.00 0.00 86 1007.0
20260506161639 59 205 0.9 4.3 0.00 0.00 0.00 86 1007.0
20260506161153 59 189 1.7 4.3 0.00 0.00 0.00 86 1007.0
20260506160620 58 209 0.9 5.2 0.00 0.00 0.00 86 1007.0
20260506160134 58 232 1.7 5.2 0.00 0.00 0.00 86 1007.1
20260506155625 58 215 1.7 7.0 0.00 0.00 0.00 86 1007.1
20260506155119 58 194 3.5 7.0 0.00 0.00 0.00 86 1007.1
20260506154654 58 190 1.7 4.3 0.00 0.00 0.00 86 1007.0
20260506154121 58 205 0.9 5.2 0.00 0.00 0.00 86 1007.0
20260506153635 58 206 1.7 5.2 0.00 0.00 0.00 86 1007.0
20260506153122 58 206 0.9 5.2 0.00 0.00 0.00 86 1007.0
20260506152659 58 193 0.9 5.2 0.00 0.00 0.00 86 1006.9
20260506152125 58 203 0.0 4.3 0.00 0.00 0.00 86 1006.9
20260506151619 58 204 0.9 4.3 0.00 0.00 0.00 86 1006.7
20260506151133 58 214 1.7 6.1 0.00 0.00 0.00 86 1006.6
20260506150619 58 209 2.6 6.1 0.00 0.00 0.00 86 1006.5
20260506150114 58 207 2.6 6.1 0.00 0.00 0.00 86 1006.5
20260506145627 58 206 1.7 7.8 0.00 0.00 0.00 86 1006.4
20260506145140 58 246 2.6 7.8 0.00 0.00 0.00 86 1006.4
20260506144628 58 213 1.7 7.8 0.00 0.00 0.00 86 1006.3
20260506144123 58 210 5.2 7.8 0.00 0.00 0.00 86 1006.1
20260506143617 58 222 6.1 7.8 0.00 0.00 0.00 86 1006.1
20260506143130 58 222 5.2 7.8 0.00 0.00 0.00 86 1006.2
20260506142625 58 214 2.6 9.6 0.00 0.00 0.00 86 1006.1
20260506142119 58 203 3.5 7.8 0.00 0.00 0.00 86 1006.2
20260506141634 57 201 2.6 7.8 0.00 0.00 0.00 86 1006.0
20260506141145 57 214 1.7 8.7 0.00 0.00 0.00 86 1006.0
20260506140636 57 193 3.5 8.7 0.00 0.00 0.00 86 1006.1
20260506140121 57 205 4.3 8.7 0.00 0.00 0.00 86 1006.2
20260506135636 57 205 4.3 9.6 0.00 0.00 0.00 86 1006.3
20260506135122 57 216 3.5 7.0 0.00 0.00 0.00 86 1006.4
20260506134617 57 212 2.6 7.0 0.00 0.00 0.00 86 1006.3
20260506134133 57 197 3.5 7.0 0.00 0.00 0.00 86 1006.5
20260506133620 57 203 2.6 5.2 0.00 0.00 0.00 86 1006.7
20260506133134 57 197 2.6 4.3 0.00 0.00 0.00 86 1006.7
20260506132620 57 187 1.7 4.3 0.00 0.00 0.00 86 1006.6
20260506132136 57 198 1.7 3.5 0.00 0.00 0.00 86 1006.7
20260506131642 56 205 0.9 3.5 0.00 0.00 0.00 86 1006.8
20260506131155 56 199 0.0 1.7 0.00 0.00 0.00 86 1006.8
20260506130621 56 199 0.9 3.5 0.00 0.00 0.00 86 1006.7
20260506130116 56 199 0.9 3.5 0.00 0.00 0.00 86 1006.7
20260506125629 56 199 0.0 1.7 0.00 0.00 0.00 86 1006.8
20260506125135 56 201 0.0 3.5 0.00 0.00 0.00 86 1006.7
20260506124628 56 203 1.7 3.5 0.00 0.00 0.00 86 1006.6
20260506124137 56 185 0.9 1.7 0.00 0.00 0.00 86 1006.7
20260506123643 55 185 0.0 0.0 0.00 0.00 0.00 86 1006.7
20260506123115 55 186 0.0 0.9 0.00 0.00 0.00 86 1006.7
20260506122632 55 185 0.0 3.5 0.00 0.00 0.00 86 1006.7
20260506122120 55 185 0.0 3.5 0.00 0.00 0.00 86 1006.7
20260506121634 55 188 0.0 2.6 0.00 0.00 0.00 86 1006.6
20260506121142 55 190 0.9 2.6 0.00 0.00 0.00 86 1006.9
20260506120635 55 192 0.0 2.6 0.00 0.00 0.00 86 1006.9
20260506120142 55 191 0.0 2.6 0.00 0.00 0.00 86 1006.7
20260506115637 55 191 0.0 0.9 0.00 0.00 0.00 86 1006.4
20260506115124 55 191 0.0 0.9 0.00 0.00 0.00 86 1006.5
20260506114618 55 191 0.0 1.7 0.00 0.00 0.00 86 1006.7
20260506114154 55 191 0.0 1.7 0.00 0.00 0.00 86 1006.7
20260506113636 55 191 0.0 1.7 0.00 0.00 0.00 86 1006.8
20260506113123 55 193 0.0 0.0 0.00 0.00 0.00 86 1006.9
20260506112619 55 193 0.0 0.0 0.00 0.00 0.00 86 1007.0
20260506112132 55 193 0.0 0.0 0.00 0.00 0.00 86 1006.9
20260506111640 55 192 0.0 0.9 0.00 0.00 0.00 87 1006.9
20260506111134 55 191 0.0 0.9 0.00 0.00 0.00 87 1006.9
20260506110640 55 195 0.0 0.9 0.00 0.00 0.00 87 1007.0
20260506110135 55 195 0.0 1.7 0.00 0.00 0.00 87 1007.0
20260506105622 55 198 0.0 2.6 0.00 0.00 0.00 87 1006.9
20260506105135 55 199 0.9 2.6 0.00 0.00 0.00 87 1007.0
20260506104623 56 199 0.0 0.9 0.00 0.00 0.00 87 1007.0
20260506104120 56 200 0.0 0.0 0.00 0.00 0.00 87 1007.0
20260506103635 56 200 0.0 0.0 0.00 0.00 0.00 86 1006.9
20260506103121 56 199 0.0 0.0 0.00 0.00 0.00 86 1006.8
20260506102637 56 207 0.0 0.0 0.00 0.00 0.00 86 1006.7
20260506102144 56 207 0.0 0.0 0.00 0.00 0.00 86 1006.8
20260506101618 56 207 0.0 0.0 0.00 0.00 0.00 86 1006.7
20260506101133 56 207 0.0 0.0 0.00 0.00 0.00 86 1006.7
20260506100621 56 209 0.0 0.0 0.00 0.00 0.00 86 1006.7
20260506100116 56 209 0.0 0.0 0.00 0.00 0.00 86 1006.5
20260506095633 56 220 0.0 0.0 0.00 0.00 0.00 86 1006.6
20260506095119 56 220 0.0 0.0 0.00 0.00 0.00 86 1006.5
20260506094632 56 218 0.0 0.0 0.00 0.00 0.00 85 1006.4
20260506094120 57 218 0.0 0.0 0.00 0.00 0.00 85 1006.5
20260506093616 57 218 0.0 0.0 0.00 0.00 0.00 85 1006.5
20260506093146 57 218 0.0 0.0 0.00 0.00 0.00 85 1006.5
20260506092619 57 218 0.0 1.7 0.00 0.00 0.00 84 1006.6
20260506092131 57 218 0.0 1.7 0.00 0.00 0.00 84 1006.6
20260506091624 57 220 0.0 2.6 0.00 0.00 0.00 84 1006.6
20260506091120 57 197 0.9 2.6 0.00 0.00 0.00 84 1006.6
20260506090652 57 178 0.0 0.0 0.00 0.00 0.00 84 1006.5
20260506090120 57 178 0.0 0.0 0.00 0.00 0.00 84 1006.7
20260506085636 57 178 0.0 0.0 0.00 0.00 0.00 84 1006.7
20260506085122 57 177 0.0 0.0 0.00 0.00 0.00 84 1006.6
20260506084616 57 181 0.0 0.0 0.00 0.00 0.00 83 1006.7
20260506084133 57 180 0.0 0.0 0.00 0.00 0.00 83 1006.5
20260506083620 57 139 0.0 0.0 0.00 0.00 0.00 83 1006.5
20260506083116 57 139 0.0 0.0 0.00 0.00 0.00 83 1006.4
20260506082653 57 139 0.0 0.0 0.00 0.00 0.00 83 1006.5
20260506082119 58 138 0.0 0.0 0.00 0.00 0.00 82 1006.5
20260506081633 58 138 0.0 0.0 0.00 0.00 0.00 82 1006.5
20260506081121 58 138 0.0 0.0 0.00 0.00 0.00 82 1006.6
20260506080635 58 138 0.0 0.0 0.00 0.00 0.00 82 1006.7
20260506080143 58 138 0.0 0.0 0.00 0.00 0.00 81 1006.6
20260506073131 58 138 0.0 0.0 0.00 0.00 0.00 82 1007.0
20260506072628 57 141 0.0 0.0 0.00 0.00 0.00 83 1007.1
20260506072123 57 141 0.0 0.0 0.00 0.00 0.00 83 1007.2
20260506071617 57 141 0.0 0.9 0.00 0.00 0.00 83 1007.3
20260506071132 57 141 0.0 2.6 0.00 0.00 0.00 83 1007.3
20260506070618 58 139 1.7 2.6 0.00 0.00 0.00 83 1007.3
20260506070133 58 216 0.0 0.0 0.00 0.00 0.00 83 1007.4
20260506062143 58 216 0.0 0.0 0.00 0.00 0.00 81 1007.4
20260506061618 58 216 0.0 0.0 0.00 0.00 0.00 81 1007.4
20260506061135 58 216 0.0 0.0 0.00 0.00 0.00 81 1007.5
20260506060621 59 216 0.0 0.0 0.00 0.00 0.00 80 1007.5
20260506060137 59 218 0.0 0.0 0.00 0.00 0.00 79 1007.6
20260506051123 60 218 0.9 2.6 0.00 0.00 0.00 74 1008.3
20260506050637 59 221 0.9 2.6 0.00 0.00 0.00 73 1008.2
20260506050124 59 216 0.9 2.6 0.00 0.00 0.00 75 1008.2
20260506044619 60 215 0.0 0.0 0.00 0.00 0.00 73 1008.4
20260506044133 60 216 0.0 0.0 0.00 0.00 0.00 72 1008.3
20260506043620 60 215 0.0 0.0 0.00 0.00 0.00 74 1008.2
20260506043154 60 214 0.0 0.0 0.00 0.00 0.00 72 1008.2
20260506042623 60 214 0.0 0.0 0.00 0.00 0.00 71 1008.2
20260506042117 60 215 0.0 0.0 0.00 0.00 0.00 72 1008.2
20260506041632 60 266 0.0 3.5 0.00 0.00 0.00 70 1008.2
20260506041143 60 232 0.9 2.6 0.00 0.00 0.00 72 1008.3
20260506040615 60 211 0.0 2.6 0.00 0.00 0.00 71 1008.2
20260506040130 60 211 0.0 2.6 0.00 0.00 0.00 70 1008.3
20260506035619 60 216 0.0 1.7 0.00 0.00 0.00 71 1008.3
20260506035149 60 215 0.0 0.0 0.00 0.00 0.00 71 1008.4
20260506034623 61 215 0.0 0.0 0.00 0.00 0.00 71 1008.5
20260506034138 61 215 0.0 0.9 0.00 0.00 0.00 69 1008.5
20260506033623 61 215 0.0 0.9 0.00 0.00 0.00 68 1008.5
20260506033118 61 216 0.0 2.6 0.00 0.00 0.00 68 1008.5
20260506032632 61 216 0.0 2.6 0.00 0.00 0.00 68 1008.4
20260506032120 61 218 0.0 0.0 0.00 0.00 0.00 68 1008.3
20260506031654 61 218 0.0 3.5 0.00 0.00 0.00 69 1008.2
20260506031119 61 219 0.0 6.1 0.00 0.00 0.00 65 1008.2
20260506030634 60 237 2.6 6.1 0.00 0.00 0.00 67 1008.2
20260506030120 61 176 0.0 0.9 0.00 0.00 0.00 68 1008.1
20260506025656 61 176 0.0 1.7 0.00 0.00 0.00 66 1008.1
20260506025121 62 226 0.0 1.7 0.00 0.00 0.00 64 1008.1
20260506024616 62 210 0.0 0.0 0.00 0.00 0.00 63 1008.2
20260506024133 63 210 0.0 0.0 0.00 0.00 0.00 61 1008.2
20260506023619 63 224 0.0 2.6 0.00 0.00 0.00 61 1008.3
20260506023135 64 229 0.9 2.6 0.00 0.00 0.00 58 1008.2
20260506022621 64 205 0.0 3.5 0.00 0.00 0.00 59 1008.3
20260506022134 64 205 0.9 3.5 0.00 0.00 0.00 56 1008.2
20260506021622 64 191 0.0 0.9 0.00 0.00 0.00 57 1008.3
20260506021136 64 191 0.0 5.2 0.00 0.00 0.00 57 1008.4
20260506020623 64 174 1.7 5.2 0.00 0.00 0.00 55 1008.3
20260506020154 65 176 0.9 1.7 0.00 0.00 0.00 56 1008.2
20260506015642 66 197 0.0 1.7 0.00 0.00 0.00 53 1008.2
20260506015134 66 203 0.0 4.3 0.00 0.00 0.00 51 1008.2
20260506014620 66 176 0.0 7.0 0.00 0.00 0.00 51 1008.2
20260506014136 67 188 3.5 7.0 0.00 0.00 0.00 51 1008.2
20260506013623 67 220 0.9 3.5 0.00 0.00 0.00 50 1008.2
20260506013118 66 206 1.7 3.5 0.00 0.00 0.00 50 1008.1
20260506012655 67 173 0.9 5.2 0.00 0.00 0.00 51 1008.2
20260506012120 67 162 2.6 5.2 0.00 0.00 0.00 50 1008.1
20260506011634 68 176 0.0 6.1 0.00 0.00 0.00 49 1008.2
20260506011122 68 187 0.0 3.5 0.00 0.00 0.00 48 1008.0
20260506010634 69 193 0.9 4.3 0.00 0.00 0.00 47 1008.1
20260506010121 69 199 0.9 7.8 0.00 0.00 0.00 46 1008.0
20260506005637 69 177 4.3 7.8 0.00 0.00 0.00 45 1007.9
20260506005125 69 193 2.6 11.3 0.00 0.00 0.00 45 1007.9
20260506004620 70 193 2.6 7.8 0.00 0.00 0.00 45 1007.9
20260506004156 70 173 4.3 7.8 0.00 0.00 0.00 45 1008.0
20260506003620 70 199 2.6 7.0 0.00 0.00 0.00 44 1007.9
20260506003134 70 202 0.9 4.3 0.00 0.00 0.00 44 1007.9
20260506002623 70 182 0.9 6.1 0.00 0.00 0.00 44 1007.8
20260506002117 71 187 1.7 7.0 0.00 0.00 0.00 43 1007.7
20260506001627 71 172 4.3 7.0 0.00 0.00 0.00 43 1007.7
20260506001144 71 173 3.5 7.8 0.00 0.00 0.00 43 1007.7
20260506000617 71 200 2.6 9.6 0.00 0.01 0.00 41 1007.6
20260506000130 71 193 0.0 7.0 0.00 0.01 0.00 42 1007.6
20260505235623 72 241 2.6 7.8 0.00 0.01 0.00 42 1007.5
20260505235158 72 207 3.5 9.6 0.00 0.01 0.00 42 1007.6
20260505234625 72 204 5.2 12.2 0.00 0.01 0.00 41 1007.6
20260505234120 72 166 7.8 12.2 0.00 0.01 0.00 41 1007.6
20260505233654 72 207 7.0 12.2 0.00 0.01 0.00 42 1007.5
20260505233121 73 193 2.6 9.6 0.00 0.01 0.00 41 1007.5
20260505232638 73 194 0.9 20.0 0.00 0.01 0.00 40 1007.5
20260505232124 73 176 11.3 20.9 0.00 0.01 0.00 40 1007.3
20260505231637 73 212 2.6 12.2 0.00 0.01 0.00 41 1007.4
20260505231132 73 207 5.2 16.5 0.00 0.01 0.00 40 1007.3
20260505230619 73 193 5.2 16.5 0.00 0.01 0.00 41 1007.3
20260505230134 74 249 8.7 15.6 0.00 0.01 0.00 41 1007.3
20260505225620 74 204 7.0 13.0 0.00 0.01 0.00 42 1007.5
20260505225132 74 204 5.2 16.5 0.00 0.01 0.00 42 1007.5